Location: Exeidioux
(45.6312°N, 1.6819°E)
Time: 18:32:30
(UTC+00:00)

Ariane Rocket - Pass Details

Date: 03 March 2021
Orbit: 759 x 771 km, 98.7° (Epoch: 15 April)

Event Time Altitude Azimuth Distance (km) Brightness Sun altitude
Exits shadow 18:42:04 14° 105° (ESE) 2,045 4.6 -11.1°
Maximum altitude 18:45:05 23° 62° (ENE) 1,594 4.2 -11.6°
Drops below altitude 10° 18:49:02 10° 11° (N) 2,323 5.4 -12.3°
Sets 18:51:45 0° 357° (N) 3,253 6.3 -12.8°
